Weather History for Izmir, Turkey

Change the Weather History Date:

Monday, July 8, 2013

  Actual Average Record
Temperature  
Mean Temperature 84 °F -  
Max Temperature 94 °F 92 °F 102 °F (2000)
Min Temperature 74 °F 69 °F 60 °F (1998)
Cooling Degree Days 19    
Growing Degree Days 34 (Base 50)    
Moisture  
Dew Point 60 °F    
Average Humidity 45    
Maximum Humidity 78    
Minimum Humidity 23    
Precipitation  
Precipitation 0.00 in - - ()
Sea Level Pressure  
Sea Level Pressure 29.86 in    
Wind  
Wind Speed 10 mph ()    
Max Wind Speed 20 mph    
Max Gust Speed -    
Visibility 7.4 miles    
Events      
Averages and records for this station are not official NWS values.
T = Trace of Precipitation, MM = Missing Value Source: Averaged Metar Reports

Daily Weather History Graph

Daily Weather History Graph

Search for Another Location

Airport:

Trip Planner

Search our weather history database for the weather conditions in past years. The results will help you decide how hot, cold, wet, or windy it might be!

Date:

Astronomy

Jul. 08, 2013 Rise Set
Actual Time 5:55 AM EEST 8:37 PM EEST
Civil Twilight 5:24 AM EEST 9:08 PM EEST
Nautical Twilight 4:45 AM EEST 9:47 PM EEST
Astronomical Twilight 4:01 AM EEST 10:31 PM EEST
Moon 6:05 AM EEST (7/8) 8:29 PM EEST (7/8)
Length of Visible Light 15h 44m
Length of Day
14h 41m
Waxing Crescent, 0% of the Moon is Illuminated
Jul 8
Waxing Crescent
Jul 16
First Quarter
Jul 22
Full
Jul 29
Last Quarter
Aug 7
New

Hourly Weather History & Observations

Time (EEST) Temp. Heat Index Dew Point Humidity Pressure Visibility Wind Dir Wind Speed Gust Speed Precip Events Conditions
12:20 AM 80.6 °F 80.8 °F 57.2 °F 45% 29.86 in - North 6.9 mph - N/A   Clear
12:50 AM 78.8 °F - 57.2 °F 47% 29.86 in - NE 4.6 mph - N/A   Clear
1:20 AM 75.2 °F - 59.0 °F 57% 29.86 in - Calm Calm - N/A   Clear
1:50 AM 77.0 °F - 59.0 °F 54% 29.86 in - NE 5.8 mph - N/A   Clear
2:20 AM 78.8 °F - 57.2 °F 47% 29.86 in - NNE 9.2 mph - N/A   Clear
2:50 AM 77.0 °F - 57.2 °F 50% 29.86 in - NNE 9.2 mph - N/A   Clear
3:00 AM 78 °F - 57 °F 38% 29.85 in 9 mi NNE 9.2 mph - -  
3:20 AM 77.0 °F - 57.2 °F 50% 29.86 in - NNE 6.9 mph - N/A   Clear
3:50 AM 77.0 °F - 57.2 °F 50% 29.86 in - NNE 12.7 mph - N/A   Clear
4:20 AM 77.0 °F - 57.2 °F 50% 29.86 in - NE 11.5 mph - N/A   Clear
4:50 AM 75.2 °F - 57.2 °F 53% 29.86 in - North 5.8 mph - N/A   Clear
5:20 AM 77.0 °F - 59.0 °F 54% 29.86 in - North 12.7 mph - N/A   Clear
5:50 AM 75.2 °F - 59.0 °F 57% 29.86 in - North 12.7 mph - N/A   Clear
6:20 AM 75.2 °F - 59.0 °F 57% 29.86 in - NNE 11.5 mph - N/A   Clear
6:50 AM 77.0 °F - 59.0 °F 54% 29.86 in - North 11.5 mph - N/A   Clear
7:20 AM 78.8 °F - 57.2 °F 47% 29.86 in - North 11.5 mph - N/A   Clear
7:50 AM 78.8 °F - 57.2 °F 47% 29.89 in - North 13.8 mph - N/A   Clear
8:20 AM 80.6 °F 80.8 °F 57.2 °F 45% 29.89 in - North 13.8 mph - N/A   Clear
8:50 AM 80.6 °F 81.1 °F 59.0 °F 48% 29.89 in - North 16.1 mph - N/A   Clear
9:00 AM 81 °F - 58 °F 35% 29.88 in 9 mi North 16.1 mph - -  
9:20 AM 82.4 °F 82.5 °F 59.0 °F 45% 29.89 in - North 16.1 mph - N/A   Clear
9:50 AM 82.4 °F 82.5 °F 59.0 °F 45% 29.89 in - North 16.1 mph - N/A   Clear
10:20 AM 84.2 °F 83.8 °F 59.0 °F 42% 29.89 in - North 16.1 mph - N/A   Clear
10:50 AM 84.2 °F 83.5 °F 57.2 °F 40% 29.89 in - North 16.1 mph - N/A   Clear
11:20 AM 86.0 °F 84.9 °F 57.2 °F 37% 29.89 in - North 18.4 mph - N/A   Clear
11:50 AM 87.8 °F 87.1 °F 59.0 °F 38% 29.89 in - North 19.6 mph - N/A   Clear
12:20 PM 89.6 °F 88.1 °F 57.2 °F 33% 29.89 in - North 18.4 mph - N/A   Clear
12:50 PM 89.6 °F 88.9 °F 59.0 °F 36% 29.89 in - North 17.3 mph - N/A   Clear
1:20 PM 91.4 °F 90.7 °F 59.0 °F 34% 29.86 in - North 17.3 mph - N/A   Clear
1:50 PM 91.4 °F 90.7 °F 59.0 °F 34% 29.86 in - North 17.3 mph - N/A   Clear
2:20 PM 93.2 °F 93.3 °F 60.8 °F 34% 29.86 in - North 17.3 mph - N/A   Clear
2:50 PM 93.2 °F 93.3 °F 60.8 °F 34% 29.86 in - North 19.6 mph - N/A   Clear
3:00 PM 93 °F - 60 °F 23% 29.85 in 9 mi North 19.6 mph - -  
3:20 PM 93.2 °F 92.6 °F 59.0 °F 32% 29.86 in 6.2 mi NNW 18.4 mph - N/A   Partly Cloudy
3:50 PM 93.2 °F 92.6 °F 59.0 °F 32% 29.86 in 6.2 mi NNW 17.3 mph - N/A   Partly Cloudy
4:20 PM 95.0 °F 94.4 °F 59.0 °F 30% 29.83 in 6.2 mi NNW 17.3 mph - N/A   Partly Cloudy
4:50 PM 95.0 °F 95.2 °F 60.8 °F 32% 29.83 in 6.2 mi North 18.4 mph - N/A   Partly Cloudy
5:20 PM 93.2 °F 93.3 °F 60.8 °F 34% 29.83 in 6.2 mi North 17.3 mph - N/A   Partly Cloudy
5:50 PM 93.2 °F 93.3 °F 60.8 °F 34% 29.83 in - NNW 16.1 mph - N/A   Clear
6:20 PM 93.2 °F 93.3 °F 60.8 °F 34% 29.83 in - NNW 16.1 mph - N/A   Clear
6:50 PM 91.4 °F 91.4 °F 60.8 °F 36% 29.83 in - North 16.1 mph - N/A   Clear
7:20 PM 91.4 °F 92.1 °F 62.6 °F 38% 29.83 in - North 16.1 mph - N/A   Clear
7:50 PM 89.6 °F 90.1 °F 62.6 °F 40% 29.83 in - North 15.0 mph - N/A   Clear
8:20 PM 87.8 °F 88.5 °F 62.6 °F 43% 29.83 in - North 15.0 mph - N/A   Clear
8:50 PM 86.0 °F 86.6 °F 62.6 °F 45% 29.86 in - North 11.5 mph - N/A   Clear
9:00 PM 86 °F - 63 °F 36% 29.84 in 9 mi North 11.5 mph - -  
9:20 PM 84.2 °F 85.6 °F 64.4 °F 51% 29.86 in - Variable 4.6 mph - N/A   Clear
9:50 PM 80.6 °F 82.7 °F 66.2 °F 61% 29.86 in - South 4.6 mph - N/A   Clear
10:20 PM 78.8 °F - 66.2 °F 65% 29.89 in - Variable 2.3 mph - N/A   Clear
10:50 PM 78.8 °F - 66.2 °F 65% 29.89 in - South 6.9 mph - N/A   Clear
11:20 PM 77.0 °F - 68.0 °F 74% 29.89 in - South 4.6 mph - N/A   Clear
11:50 PM 75.2 °F - 68.0 °F 78% 29.89 in - South 5.8 mph - N/A   Clear